QPF
0.12 0.10 0.09 0.10 0.14 0.14 0.15 0.15 0.13 0.11 0.09 0.09 0.10 0.12 0.14 0.16 0.17 0.15 0.15 0.15 0.16 0.16 0.16 0.16 0.15 0.13 0.14 0.13 0.09 0.09 0.08 0.07 0.07 0.06 0.06 0.05 0.03 0.02 0.03 0.06 0.08 0.07 0.05
0.11 0.08 0.07 0.09 0.11 0.11 0.12 0.13 0.13 0.11 0.10 0.09 0.09 0.10 0.12 0.13 0.13 0.15 0.17 0.19 0.18 0.17 0.14 0.16 0.14 0.11 0.11 0.12 0.09 0.08 0.08 0.08 0.09 0.07 0.07 0.05 0.03 0.04 0.06 0.08 0.08 0.07 0.05
0.07 0.08 0.07 0.10 0.12 0.13 0.11 0.10 0.11 0.14 0.14 0.13 0.11 0.10 0.12 0.12 0.12 0.14 0.17 0.21 0.19 0.15 0.13 0.15 0.13 0.10 0.10 0.11 0.10 0.08 0.07 0.07 0.08 0.11 0.13 0.07 0.03 0.03 0.04 0.05 0.05 0.05 0.04
0.05 0.06 0.05 0.06 0.09 0.12 0.12 0.11 0.13 0.17 0.19 0.16 0.14 0.15 0.16 0.15 0.16 0.18 0.17 0.18 0.15 0.12 0.11 0.12 0.10 0.10 0.10 0.09 0.11 0.09 0.07 0.06 0.09 0.14 0.14 0.10 0.06 0.03 0.04 0.04 0.04 0.04 0.04
0.04 0.04 0.03 0.05 0.06 0.07 0.08 0.09 0.10 0.13 0.14 0.13 0.13 0.14 0.16 0.15 0.15 0.15 0.15 0.15 0.13 0.11 0.10 0.11 0.12 0.13 0.10 0.09 0.11 0.08 0.07 0.07 0.11 0.14 0.11 0.12 0.11 0.05 0.05 0.05 0.04 0.03 0.04
0.02 0.02 0.02 0.03 0.04 0.06 0.07 0.07 0.07 0.09 0.09 0.10 0.10 0.12 0.13 0.12 0.13 0.15 0.14 0.12 0.11 0.09 0.08 0.09 0.18 0.20 0.13 0.12 0.12 0.09 0.09 0.11 0.15 0.12 0.10 0.09 0.09 0.06 0.05 0.05 0.05 0.04 0.05
0.01 0.01 0.02 0.02 0.03 0.05 0.05 0.05 0.06 0.07 0.08 0.10 0.11 0.10 0.09 0.10 0.11 0.12 0.11 0.08 0.08 0.08 0.07 0.07 0.13 0.19 0.18 0.15 0.13 0.09 0.11 0.14 0.13 0.10 0.08 0.10 0.08 0.05 0.05 0.04 0.05 0.05 0.05
0.01 0.01 0.01 0.02 0.02 0.03 0.03 0.04 0.07 0.12 0.13 0.14 0.11 0.07 0.07 0.07 0.06 0.06 0.06 0.05 0.05 0.04 0.06 0.05 0.06 0.11 0.14 0.16 0.14 0.10 0.10 0.12 0.08 0.05 0.04 0.06 0.05 0.04 0.05 0.05 0.05 0.06 0.04
0.00 0.00 0.01 0.02 0.03 0.02 0.03 0.04 0.07 0.09 0.09 0.08 0.07 0.06 0.05 0.05 0.04 0.03 0.03 0.05 0.06 0.05 0.04 0.04 0.05 0.07 0.08 0.11 0.11 0.08 0.09 0.10 0.07 0.04 0.03 0.05 0.04 0.05 0.06 0.06 0.06 0.08 0.06
0.00 0.01 0.02 0.01 0.02 0.02 0.02 0.02 0.03 0.04 0.04 0.05 0.04 0.04 0.04 0.04 0.03 0.03 0.02 0.04 0.04 0.04 0.04 0.04 0.06 0.06 0.05 0.06 0.07 0.08 0.08 0.08 0.06 0.04 0.03 0.04 0.05 0.05 0.07 0.07 0.07 0.10 0.07
0.00 0.01 0.02 0.01 0.01 0.01 0.01 0.02 0.02 0.03 0.04 0.05 0.05 0.07 0.11 0.10 0.05 0.05 0.03 0.03 0.03 0.03 0.02 0.02 0.02 0.03 0.03 0.03 0.04 0.06 0.10 0.07 0.09 0.08 0.04 0.04 0.07 0.07 0.07 0.06 0.07 0.09 0.07
0.00 0.00 0.01 0.00 0.00 0.00 0.00 0.03 0.05 0.03 0.08 0.10 0.08 0.09 0.10 0.09 0.08 0.04 0.03 0.03 0.02 0.03 0.03 0.02 0.02 0.02 0.04 0.04 0.03 0.06 0.08 0.07 0.08 0.05 0.05 0.06 0.06 0.05 0.05 0.03 0.04 0.06 0.05
0.00 0.00 0.00 0.01 0.01 0.01 0.01 0.01 0.03 0.04 0.05 0.05 0.04 0.05 0.07 0.05 0.03 0.03 0.04 0.04 0.04 0.04 0.07 0.05 0.06 0.07 0.07 0.05 0.04 0.03 0.04 0.05 0.06 0.05 0.04 0.04 0.03 0.02 0.02 0.02 0.03 0.04 0.05
0.00 0.00 0.00 0.00 0.00 0.01 0.01 0.01 0.02 0.03 0.03 0.03 0.03 0.02 0.03 0.03 0.04 0.04 0.07 0.07 0.06 0.06 0.08 0.07 0.08 0.08 0.05 0.04 0.04 0.04 0.03 0.02 0.03 0.03 0.02 0.02 0.02 0.02 0.03 0.03 0.04 0.06 0.07
0.00 0.00 0.00 0.00 0.01 0.01 0.01 0.02 0.02 0.05 0.06 0.07 0.05 0.01 0.02 0.03 0.04 0.07 0.08 0.09 0.07 0.05 0.05 0.07 0.05 0.07 0.05 0.04 0.04 0.05 0.03 0.03 0.03 0.10 0.04 0.01 0.01 0.01 0.02 0.04 0.04 0.05 0.09
0.00 0.00 0.00 0.01 0.01 0.01 0.01 0.01 0.02 0.06 0.05 0.03 0.02 0.02 0.02 0.04 0.06 0.09 0.10 0.10 0.08 0.07 0.06 0.07 0.05 0.06 0.06 0.04 0.03 0.03 0.03 0.04 0.06 0.07 0.04 0.02 0.02 0.02 0.02 0.03 0.04 0.06 0.11
0.00 0.00 0.01 0.01 0.00 0.01 0.01 0.01 0.01 0.01 0.01 0.01 0.02 0.02 0.03 0.05 0.07 0.09 0.09 0.08 0.07 0.06 0.06 0.06 0.07 0.08 0.09 0.08 0.06 0.04 0.04 0.04 0.03 0.04 0.05 0.05 0.05 0.02 0.03 0.04 0.05 0.06 0.13
0.01 0.01 0.01 0.01 0.00 0.01 0.01 0.03 0.02 0.01 0.00 0.01 0.02 0.02 0.02 0.03 0.04 0.07 0.07 0.05 0.07 0.05 0.07 0.07 0.07 0.09 0.12 0.12 0.09 0.06 0.06 0.05 0.02 0.02 0.04 0.06 0.07 0.05 0.04 0.04 0.05 0.08 0.17
0.01 0.01 0.01 0.01 0.01 0.01 0.01 0.03 0.03 0.01 0.01 0.01 0.02 0.03 0.03 0.02 0.03 0.06 0.07 0.07 0.06 0.06 0.05 0.05 0.08 0.10 0.10 0.10 0.10 0.10 0.05 0.06 0.04 0.03 0.04 0.05 0.07 0.06 0.05 0.05 0.07 0.12 0.16
0.00 0.01 0.01 0.01 0.01 0.02 0.03 0.04 0.04 0.03 0.03 0.02 0.03 0.04 0.02 0.02 0.02 0.04 0.05 0.05 0.05 0.07 0.07 0.08 0.10 0.09 0.10 0.09 0.08 0.09 0.06 0.05 0.04 0.05 0.05 0.07 0.09 0.07 0.07 0.08 0.14 0.12 0.09
0.00 0.00 0.02 0.04 0.03 0.04 0.05 0.06 0.07 0.06 0.05 0.04 0.03 0.02 0.02 0.02 0.03 0.05 0.05 0.07 0.07 0.07 0.08 0.09 0.10 0.11 0.10 0.09 0.10 0.10 0.07 0.04 0.04 0.05 0.06 0.09 0.11 0.09 0.09 0.13 0.15 0.14 0.09
0.01 0.01 0.01 0.03 0.03 0.04 0.05 0.05 0.05 0.05 0.04 0.04 0.03 0.05 0.03 0.03 0.05 0.06 0.08 0.07 0.07 0.08 0.09 0.09 0.12 0.13 0.10 0.08 0.10 0.12 0.12 0.12 0.08 0.04 0.05 0.06 0.08 0.09 0.09 0.10 0.13 0.15 0.14
0.00 0.01 0.01 0.02 0.02 0.04 0.05 0.05 0.06 0.06 0.06 0.07 0.06 0.06 0.05 0.05 0.05 0.05 0.07 0.07 0.07 0.07 0.10 0.10 0.12 0.12 0.11 0.09 0.08 0.11 0.14 0.17 0.14 0.08 0.07 0.06 0.07 0.07 0.07 0.09 0.09 0.13 0.13
0.00 0.01 0.01 0.01 0.02 0.03 0.04 0.05 0.07 0.09 0.08 0.08 0.06 0.05 0.04 0.05 0.05 0.04 0.04 0.06 0.07 0.08 0.09 0.09 0.11 0.11 0.12 0.12 0.09 0.08 0.10 0.13 0.14 0.14 0.11 0.08 0.09 0.08 0.08 0.07 0.08 0.10 0.08
0.00 0.00 0.01 0.01 0.02 0.03 0.03 0.05 0.07 0.09 0.10 0.07 0.06 0.07 0.05 0.04 0.03 0.02 0.04 0.06 0.08 0.09 0.08 0.09 0.09 0.09 0.11 0.10 0.10 0.11 0.12 0.14 0.13 0.13 0.14 0.14 0.13 0.10 0.08 0.07 0.07 0.09 0.07
0.00 0.00 0.00 0.01 0.02 0.02 0.03 0.04 0.05 0.06 0.07 0.07 0.08 0.09 0.09 0.07 0.05 0.03 0.04 0.07 0.08 0.07 0.07 0.08 0.08 0.09 0.09 0.11 0.11 0.11 0.12 0.12 0.13 0.13 0.13 0.13 0.12 0.10 0.09 0.08 0.08 0.07 0.06
MSLP
1009.79 1009.58 1009.43 1009.38 1009.42 1009.51 1009.60 1009.64 1009.60 1009.50 1009.37 1009.28 1009.27 1009.37 1009.58 1009.89 1010.23 1010.57 1010.87 1011.11 1011.30 1011.48 1011.69 1011.94 1012.26 1012.63 1013.03 1013.43 1013.79 1014.10 1014.37 1014.60 1014.84 1015.08 1015.35 1015.64 1015.92 1016.19 1016.42 1016.61 1016.76 1016.89 1017.03
1009.95 1009.87 1009.86 1009.92 1010.04 1010.17 1010.25 1010.26 1010.19 1010.05 1009.90 1009.81 1009.81 1009.94 1010.19 1010.52 1010.88 1011.20 1011.46 1011.66 1011.80 1011.94 1012.12 1012.35 1012.66 1013.03 1013.43 1013.80 1014.14 1014.42 1014.65 1014.86 1015.07 1015.31 1015.59 1015.90 1016.22 1016.51 1016.77 1016.97 1017.13 1017.27 1017.40
1010.03 1010.07 1010.17 1010.34 1010.54 1010.72 1010.83 1010.84 1010.75 1010.60 1010.45 1010.36 1010.39 1010.54 1010.80 1011.14 1011.47 1011.77 1011.99 1012.14 1012.24 1012.35 1012.51 1012.74 1013.06 1013.42 1013.81 1014.16 1014.47 1014.71 1014.90 1015.07 1015.26 1015.49 1015.78 1016.11 1016.46 1016.79 1017.08 1017.31 1017.49 1017.64 1017.78
1010.02 1010.15 1010.36 1010.63 1010.92 1011.17 1011.33 1011.37 1011.30 1011.16 1011.02 1010.95 1010.99 1011.15 1011.41 1011.72 1012.03 1012.28 1012.46 1012.56 1012.64 1012.74 1012.90 1013.14 1013.47 1013.83 1014.21 1014.53 1014.79 1014.98 1015.12 1015.26 1015.42 1015.65 1015.95 1016.31 1016.69 1017.05 1017.37 1017.63 1017.83 1018.00 1018.16
1009.93 1010.13 1010.43 1010.80 1011.19 1011.53 1011.76 1011.85 1011.82 1011.72 1011.60 1011.55 1011.60 1011.76 1012.00 1012.28 1012.55 1012.76 1012.90 1012.98 1013.05 1013.15 1013.32 1013.58 1013.92 1014.29 1014.64 1014.93 1015.14 1015.27 1015.36 1015.45 1015.60 1015.82 1016.14 1016.52 1016.93 1017.33 1017.67 1017.95 1018.17 1018.35 1018.52
1009.80 1010.05 1010.42 1010.89 1011.37 1011.80 1012.11 1012.28 1012.31 1012.24 1012.16 1012.13 1012.18 1012.33 1012.56 1012.81 1013.03 1013.21 1013.32 1013.39 1013.46 1013.58 1013.78 1014.06 1014.41 1014.77 1015.09 1015.33 1015.49 1015.56 1015.60 1015.66 1015.79 1016.02 1016.36 1016.77 1017.21 1017.63 1017.99 1018.29 1018.51 1018.69 1018.87
1009.68 1009.96 1010.39 1010.94 1011.51 1012.02 1012.41 1012.64 1012.72 1012.71 1012.66 1012.65 1012.71 1012.85 1013.05 1013.27 1013.47 1013.62 1013.72 1013.79 1013.88 1014.03 1014.26 1014.56 1014.91 1015.25 1015.53 1015.72 1015.82 1015.83 1015.83 1015.87 1015.99 1016.24 1016.61 1017.05 1017.52 1017.96 1018.33 1018.62 1018.83 1019.00 1019.17
1009.62 1009.92 1010.39 1010.99 1011.63 1012.20 1012.65 1012.93 1013.06 1013.08 1013.06 1013.06 1013.13 1013.27 1013.46 1013.67 1013.85 1013.99 1014.09 1014.17 1014.29 1014.46 1014.71 1015.02 1015.36 1015.67 1015.91 1016.05 1016.08 1016.05 1016.01 1016.03 1016.17 1016.45 1016.85 1017.33 1017.83 1018.28 1018.66 1018.94 1019.13 1019.27 1019.42
1009.64 1009.95 1010.45 1011.09 1011.75 1012.35 1012.82 1013.13 1013.28 1013.32 1013.32 1013.35 1013.43 1013.57 1013.77 1013.97 1014.15 1014.29 1014.40 1014.50 1014.64 1014.83 1015.09 1015.40 1015.71 1015.99 1016.18 1016.26 1016.24 1016.17 1016.11 1016.13 1016.29 1016.60 1017.04 1017.57 1018.10 1018.58 1018.95 1019.21 1019.37 1019.49 1019.60
1009.77 1010.09 1010.59 1011.23 1011.89 1012.48 1012.94 1013.24 1013.39 1013.44 1013.46 1013.50 1013.60 1013.76 1013.97 1014.18 1014.37 1014.52 1014.64 1014.76 1014.90 1015.10 1015.35 1015.65 1015.93 1016.17 1016.30 1016.33 1016.27 1016.17 1016.11 1016.14 1016.32 1016.67 1017.16 1017.73 1018.30 1018.80 1019.18 1019.43 1019.57 1019.65 1019.73
1009.99 1010.31 1010.80 1011.41 1012.03 1012.58 1012.99 1013.26 1013.39 1013.44 1013.47 1013.54 1013.67 1013.86 1014.08 1014.32 1014.52 1014.68 1014.81 1014.93 1015.07 1015.26 1015.50 1015.76 1016.02 1016.21 1016.30 1016.29 1016.20 1016.09 1016.02 1016.07 1016.27 1016.66 1017.19 1017.80 1018.40 1018.93 1019.32 1019.58 1019.71 1019.77 1019.82
1010.28 1010.59 1011.06 1011.62 1012.17 1012.64 1012.99 1013.21 1013.31 1013.36 1013.40 1013.50 1013.66 1013.89 1014.15 1014.40 1014.62 1014.79 1014.91 1015.03 1015.16 1015.33 1015.54 1015.77 1015.99 1016.15 1016.21 1016.18 1016.07 1015.96 1015.89 1015.95 1016.18 1016.59 1017.14 1017.77 1018.41 1018.96 1019.39 1019.66 1019.81 1019.86 1019.90
1010.61 1010.91 1011.34 1011.83 1012.29 1012.68 1012.95 1013.11 1013.18 1013.22 1013.29 1013.42 1013.63 1013.89 1014.18 1014.46 1014.69 1014.86 1014.98 1015.07 1015.18 1015.33 1015.51 1015.71 1015.90 1016.04 1016.09 1016.05 1015.95 1015.84 1015.78 1015.85 1016.08 1016.49 1017.04 1017.69 1018.33 1018.91 1019.37 1019.68 1019.86 1019.94 1019.99
1010.93 1011.22 1011.60 1012.01 1012.39 1012.69 1012.88 1012.99 1013.04 1013.08 1013.18 1013.35 1013.59 1013.90 1014.22 1014.51 1014.74 1014.91 1015.01 1015.09 1015.17 1015.29 1015.45 1015.63 1015.80 1015.94 1015.99 1015.97 1015.89 1015.79 1015.75 1015.81 1016.02 1016.41 1016.94 1017.56 1018.20 1018.79 1019.28 1019.64 1019.86 1019.99 1020.07
1011.21 1011.49 1011.82 1012.16 1012.45 1012.66 1012.80 1012.86 1012.90 1012.96 1013.09 1013.29 1013.58 1013.91 1014.25 1014.55 1014.78 1014.94 1015.03 1015.09 1015.15 1015.25 1015.39 1015.57 1015.74 1015.88 1015.96 1015.97 1015.92 1015.85 1015.81 1015.86 1016.04 1016.38 1016.86 1017.42 1018.03 1018.61 1019.12 1019.52 1019.80 1019.99 1020.12
1011.41 1011.68 1011.97 1012.24 1012.46 1012.61 1012.70 1012.75 1012.79 1012.87 1013.03 1013.26 1013.57 1013.92 1014.26 1014.56 1014.78 1014.93 1015.02 1015.07 1015.13 1015.22 1015.36 1015.54 1015.73 1015.90 1016.01 1016.06 1016.05 1016.00 1015.98 1016.01 1016.15 1016.41 1016.80 1017.29 1017.82 1018.37 1018.87 1019.29 1019.63 1019.89 1020.09
1011.51 1011.77 1012.02 1012.24 1012.41 1012.53 1012.60 1012.65 1012.71 1012.81 1012.99 1013.24 1013.56 1013.90 1014.23 1014.52 1014.73 1014.88 1014.97 1015.03 1015.10 1015.20 1015.35 1015.54 1015.75 1015.95 1016.10 1016.19 1016.23 1016.22 1016.20 1016.21 1016.30 1016.48 1016.77 1017.15 1017.59 1018.06 1018.52 1018.95 1019.33 1019.65 1019.92
1011.49 1011.75 1011.97 1012.16 1012.31 1012.41 1012.49 1012.55 1012.64 1012.77 1012.97 1013.22 1013.52 1013.84 1014.14 1014.41 1014.61 1014.76 1014.86 1014.95 1015.04 1015.17 1015.34 1015.55 1015.79 1016.01 1016.20 1016.33 1016.40 1016.42 1016.42 1016.42 1016.46 1016.56 1016.74 1016.99 1017.31 1017.68 1018.07 1018.47 1018.86 1019.23 1019.56
1011.35 1011.60 1011.82 1012.00 1012.15 1012.26 1012.36 1012.47 1012.59 1012.74 1012.94 1013.18 1013.44 1013.72 1013.98 1014.22 1014.41 1014.57 1014.70 1014.83 1014.96 1015.13 1015.33 1015.56 1015.80 1016.04 1016.25 1016.41 1016.51 1016.57 1016.59 1016.59 1016.59 1016.62 1016.69 1016.82 1017.01 1017.25 1017.54 1017.88 1018.25 1018.63 1019.01
1011.08 1011.35 1011.58 1011.77 1011.93 1012.09 1012.23 1012.38 1012.54 1012.72 1012.91 1013.12 1013.33 1013.55 1013.77 1013.96 1014.15 1014.33 1014.49 1014.67 1014.86 1015.06 1015.29 1015.53 1015.78 1016.01 1016.22 1016.39 1016.52 1016.61 1016.65 1016.66 1016.65 1016.63 1016.63 1016.64 1016.70 1016.81 1016.98 1017.22 1017.53 1017.90 1018.29
1010.71 1011.01 1011.26 1011.48 1011.68 1011.88 1012.09 1012.30 1012.50 1012.70 1012.88 1013.05 1013.21 1013.37 1013.52 1013.68 1013.85 1014.05 1014.26 1014.49 1014.73 1014.98 1015.23 1015.47 1015.71 1015.92 1016.11 1016.28 1016.43 1016.54 1016.61 1016.65 1016.65 1016.61 1016.55 1016.48 1016.42 1016.41 1016.45 1016.58 1016.81 1017.12 1017.51
1010.27 1010.60 1010.89 1011.14 1011.40 1011.67 1011.94 1012.22 1012.47 1012.69 1012.87 1013.00 1013.10 1013.18 1013.27 1013.39 1013.55 1013.76 1014.01 1014.29 1014.59 1014.87 1015.14 1015.38 1015.59 1015.77 1015.94 1016.09 1016.23 1016.37 1016.48 1016.57 1016.60 1016.57 1016.49 1016.37 1016.23 1016.11 1016.04 1016.05 1016.18 1016.42 1016.76
1009.81 1010.18 1010.50 1010.80 1011.11 1011.45 1011.80 1012.14 1012.45 1012.70 1012.87 1012.97 1013.02 1013.03 1013.06 1013.13 1013.26 1013.47 1013.75 1014.07 1014.41 1014.73 1015.01 1015.25 1015.43 1015.58 1015.71 1015.84 1015.99 1016.14 1016.30 1016.43 1016.52 1016.54 1016.48 1016.35 1016.17 1015.97 1015.81 1015.72 1015.74 1015.89 1016.16
1009.38 1009.78 1010.13 1010.48 1010.85 1011.25 1011.66 1012.07 1012.44 1012.72 1012.90 1012.97 1012.97 1012.92 1012.88 1012.90 1013.00 1013.19 1013.48 1013.82 1014.18 1014.53 1014.83 1015.06 1015.23 1015.35 1015.45 1015.57 1015.71 1015.89 1016.09 1016.28 1016.44 1016.52 1016.52 1016.42 1016.23 1016.01 1015.79 1015.63 1015.56 1015.63 1015.82
1009.03 1009.45 1009.83 1010.21 1010.61 1011.06 1011.54 1012.01 1012.42 1012.74 1012.93 1012.99 1012.94 1012.84 1012.74 1012.68 1012.73 1012.88 1013.15 1013.50 1013.88 1014.24 1014.55 1014.79 1014.96 1015.08 1015.17 1015.28 1015.43 1015.63 1015.87 1016.12 1016.35 1016.52 1016.58 1016.54 1016.41 1016.20 1015.97 1015.78 1015.66 1015.66 1015.78
1008.82 1009.25 1009.64 1010.02 1010.45 1010.92 1011.43 1011.95 1012.40 1012.75 1012.95 1013.00 1012.93 1012.77 1012.60 1012.47 1012.44 1012.54 1012.76 1013.09 1013.46 1013.84 1014.17 1014.44 1014.63 1014.76 1014.87 1014.99 1015.15 1015.37 1015.65 1015.95 1016.24 1016.48 1016.64 1016.68 1016.62 1016.48 1016.29 1016.11 1015.98 1015.95 1016.02
Thickness
5788 5785 5782 5781 5781 5780 5780 5779 5779 5779 5779 5778 5777 5776 5775 5774 5773 5773 5772 5770 5769 5768 5767 5766 5765 5764 5763 5762 5761 5760 5759 5758 5757 5755 5754 5753 5752 5751 5749 5748 5747 5745 5743
5790 5784 5781 5780 5779 5778 5778 5777 5777 5777 5776 5776 5775 5774 5773 5772 5771 5770 5769 5768 5767 5766 5765 5764 5763 5762 5761 5760 5759 5758 5757 5756 5755 5754 5752 5751 5750 5749 5748 5747 5746 5743 5741
5791 5785 5781 5779 5778 5777 5776 5775 5775 5774 5774 5774 5773 5772 5771 5770 5769 5768 5767 5766 5766 5765 5764 5763 5762 5761 5760 5759 5758 5757 5756 5755 5754 5753 5752 5750 5748 5747 5746 5745 5744 5741 5739
5792 5786 5781 5779 5777 5776 5774 5773 5772 5772 5771 5771 5771 5770 5769 5768 5767 5767 5766 5765 5764 5764 5762 5761 5760 5760 5758 5757 5756 5756 5755 5755 5754 5753 5752 5750 5747 5745 5744 5743 5741 5739 5737
5793 5786 5780 5778 5776 5775 5773 5772 5770 5770 5770 5769 5769 5768 5767 5766 5765 5764 5764 5763 5763 5762 5761 5760 5759 5758 5757 5757 5756 5755 5755 5754 5754 5753 5752 5749 5745 5743 5742 5741 5739 5737 5736
5794 5786 5780 5778 5776 5774 5772 5771 5770 5769 5768 5768 5767 5766 5765 5765 5764 5763 5762 5762 5761 5761 5760 5759 5758 5757 5756 5756 5756 5755 5755 5755 5755 5754 5751 5748 5744 5742 5741 5739 5738 5736 5734
5795 5788 5781 5777 5775 5773 5771 5770 5769 5768 5767 5766 5766 5765 5764 5763 5762 5761 5761 5760 5760 5759 5759 5758 5757 5756 5756 5756 5756 5756 5755 5755 5755 5754 5750 5747 5743 5741 5739 5738 5736 5734 5732
5798 5789 5781 5777 5775 5773 5771 5770 5768 5767 5766 5765 5764 5763 5762 5762 5761 5760 5759 5759 5758 5758 5757 5757 5757 5756 5757 5756 5756 5756 5756 5755 5756 5755 5750 5746 5743 5740 5739 5737 5735 5733 5731
5801 5793 5786 5780 5775 5773 5771 5769 5768 5767 5766 5764 5764 5763 5762 5761 5760 5759 5758 5757 5757 5757 5757 5756 5756 5756 5756 5757 5757 5757 5757 5756 5755 5754 5750 5745 5742 5740 5738 5736 5734 5733 5731
5802 5797 5790 5785 5780 5776 5772 5769 5768 5766 5765 5764 5763 5762 5761 5760 5760 5759 5757 5756 5756 5756 5756 5756 5756 5756 5756 5756 5757 5757 5757 5756 5756 5753 5749 5745 5742 5740 5737 5735 5734 5732 5730
5800 5797 5793 5788 5784 5780 5776 5771 5769 5766 5765 5764 5763 5762 5761 5761 5761 5759 5757 5756 5756 5755 5755 5755 5755 5755 5756 5756 5757 5757 5757 5757 5756 5753 5749 5745 5742 5740 5738 5735 5734 5732 5730
5796 5797 5795 5791 5788 5784 5781 5774 5771 5769 5766 5765 5764 5762 5762 5762 5761 5760 5757 5756 5756 5755 5755 5755 5755 5755 5756 5757 5758 5758 5757 5758 5756 5752 5747 5744 5742 5740 5738 5736 5734 5732 5730
5799 5797 5795 5791 5789 5786 5782 5778 5775 5771 5768 5767 5766 5764 5763 5763 5761 5760 5758 5756 5756 5756 5756 5756 5756 5757 5758 5760 5760 5760 5759 5759 5756 5752 5746 5744 5742 5740 5738 5736 5734 5732 5730
5800 5797 5795 5792 5788 5786 5783 5780 5777 5774 5772 5769 5767 5766 5765 5764 5763 5762 5760 5759 5759 5758 5758 5759 5759 5760 5760 5761 5762 5761 5760 5759 5756 5751 5746 5744 5742 5740 5739 5736 5734 5733 5731
5801 5798 5795 5792 5787 5785 5782 5781 5779 5776 5773 5770 5768 5766 5765 5764 5763 5762 5761 5760 5760 5760 5760 5760 5759 5760 5761 5762 5762 5761 5760 5758 5755 5752 5747 5745 5743 5741 5739 5737 5736 5734 5732
5803 5800 5797 5792 5788 5785 5782 5781 5779 5777 5774 5771 5769 5767 5765 5764 5762 5762 5761 5760 5760 5760 5760 5759 5759 5760 5760 5761 5760 5760 5759 5758 5755 5752 5749 5746 5744 5742 5741 5739 5737 5736 5734
5807 5803 5798 5795 5790 5786 5783 5781 5781 5778 5775 5772 5769 5767 5766 5764 5762 5761 5760 5760 5760 5760 5760 5760 5760 5759 5759 5760 5759 5759 5758 5757 5756 5754 5751 5748 5746 5744 5742 5741 5739 5737 5735
5811 5805 5801 5799 5792 5787 5784 5782 5782 5780 5777 5774 5771 5768 5766 5764 5763 5761 5761 5760 5760 5760 5760 5760 5759 5758 5757 5758 5758 5758 5758 5757 5756 5755 5753 5751 5749 5747 5744 5742 5741 5739 5737
5813 5807 5802 5799 5794 5789 5785 5783 5781 5780 5778 5775 5772 5769 5767 5765 5764 5762 5761 5761 5761 5760 5760 5760 5758 5757 5755 5756 5757 5757 5758 5757 5757 5756 5756 5754 5752 5750 5747 5744 5742 5740 5738
5816 5810 5804 5801 5796 5792 5788 5784 5782 5780 5778 5776 5774 5771 5768 5767 5765 5764 5762 5761 5761 5760 5758 5758 5756 5756 5756 5756 5758 5757 5757 5758 5757 5757 5756 5755 5753 5752 5750 5747 5743 5740 5738
5816 5809 5805 5800 5797 5792 5787 5783 5779 5778 5778 5777 5775 5772 5770 5768 5767 5765 5763 5762 5761 5760 5759 5758 5756 5755 5755 5757 5754 5751 5755 5758 5758 5757 5756 5755 5754 5753 5751 5748 5745 5742 5739
5816 5811 5806 5801 5798 5794 5790 5787 5784 5782 5780 5779 5777 5774 5772 5769 5768 5767 5764 5763 5762 5760 5758 5757 5756 5753 5754 5757 5752 5746 5743 5746 5752 5757 5756 5755 5754 5753 5751 5749 5746 5744 5741
5817 5813 5809 5803 5799 5795 5793 5789 5787 5783 5781 5778 5776 5774 5773 5771 5769 5768 5765 5764 5762 5761 5758 5757 5756 5754 5751 5755 5756 5749 5741 5737 5743 5751 5755 5755 5754 5752 5751 5750 5747 5745 5743
5822 5818 5812 5806 5801 5797 5794 5789 5784 5779 5776 5776 5776 5775 5774 5773 5771 5769 5767 5765 5763 5762 5760 5759 5759 5757 5754 5752 5754 5755 5753 5750 5741 5740 5747 5752 5753 5751 5750 5750 5748 5746 5744
5827 5821 5814 5807 5802 5798 5795 5791 5786 5782 5780 5780 5779 5776 5774 5774 5772 5771 5769 5766 5764 5762 5761 5760 5759 5758 5756 5753 5752 5753 5752 5751 5750 5741 5737 5743 5746 5749 5750 5749 5747 5746 5744
5829 5823 5816 5808 5802 5799 5795 5792 5788 5784 5782 5779 5777 5775 5774 5773 5773 5772 5771 5768 5766 5764 5763 5761 5760 5759 5757 5755 5754 5753 5751 5748 5746 5744 5739 5739 5740 5745 5748 5748 5747 5746 5744